Location: Unspecified
(0.0000°N, 0.0000°E)
Time: 22:56:34
(UTC+02:00)

Cosmos 1733 Rocket - Visible Passes

Search period start: 19 April 2014 00:00
Search period end: 29 April 2014 00:00
Orbit: 606 x 630 km, 82.5° (Epoch: 18 April)

Date Brightness Start Highest point End Pass type
(mag) Time Alt. Az. Time Alt. Az. Time Alt. Az.
19 Apr 6.8 07:05:26 10° E 07:05:49 10° E 07:06:13 10° E visible
19 Apr 6.1 20:48:38 10° NW 20:51:49 19° W 20:55:00 10° SW visible
20 Apr 5.8 07:19:23 10° SSE 07:22:50 23° E 07:26:15 10° NE visible
23 Apr 6.5 06:35:23 10° ESE 06:36:15 11° E 06:37:07 10° E visible
23 Apr 6.1 20:19:09 10° NW 20:22:15 19° W 20:25:22 10° SW visible
24 Apr 5.5 06:49:45 10° SSE 06:53:15 24° E 06:56:44 10° NE visible
25 Apr 3.8 07:06:01 10° S 07:10:15 56° E 07:14:28 10° NNE visible
26 Apr 3.0 07:22:59 10° SSW 07:27:14 60° W 07:31:29 10° N visible
27 Apr 6.3 06:05:30 10° ESE 06:06:40 11° E 06:07:50 10° ENE visible
28 Apr 5.3 06:20:07 10° SSE 06:23:40 25° E 06:27:12 10° NE visible
